Regional Weather Roundup
Issued by NWS

Home | Current Version | Previous Version | Text Only | Print | Product List | Glossary Off
Versions: 1 2 3 4 5 6 7 8 9 10 11 12 13 14 15 16 17 18 19 20 21 22 23 24 25 26 27 28 29 30 31 32 33 34 35 36 37 38 39 40 41 42 43 44 45 46 47 48 49 50

000
ASUS45 KPSR 220910
RWRAZ

ARIZONA REGIONAL HOURLY WEATHER ROUNDUP
NATIONAL WEATHER SERVICE PHOENIX AZ
200 AM MST FRI AUG 22 2014

NOTE: FAIR INDICATES FEW OR NO CLOUDS BELOW 12,000 FEET WITH NO
SIGNIFICANT WEATHER AND/OR OBSTRUCTIONS TO VISIBILITY.

AZZ001>003-036-221000-
NORTHWEST ARIZONA

CITY           SKY/WX    TMP DP  RH WIND       PRES   REMARKS
BULLHEAD CITY  PTCLDY    75  59  57 S7        29.94S
KINGMAN        CLEAR     62  56  80 SE6       30.06F
$$

AZZ004>008-015-016-018-221000-
NORTH CENTRAL ARIZONA

CITY           SKY/WX    TMP DP  RH WIND       PRES   REMARKS
GRAND CANYON     N/A    N/A N/A N/A MISG        N/A
WILLIAMS       MOCLDY    52  50  93 S6        30.30F
PRESCOTT       CLOUDY    61  57  87 SE6       30.16F
FLAGSTAFF      LGT RAIN  53  51  93 SW5       30.27F
PAYSON         PTCLDY    61  57  88 CALM      30.19S
PAGE           CLOUDY    65  57  75 E6        30.11F
$$

AZZ009>014-017-221000-
NORTHEAST ARIZONA

CITY           SKY/WX    TMP DP  RH WIND       PRES   REMARKS
WINSLOW        MOCLDY    61  58  90 W5        30.17S
SAINT JOHNS    MOCLDY    58  57  97 W3        30.19S
WINDOW ROCK    CLOUDY    57  52  83 E3        30.25F
SHOW LOW       PTCLDY    54  50  87 CALM      30.26F
$$

AZZ023-221000-
GREATER PHOENIX AREA

CITY           SKY/WX    TMP DP  RH WIND       PRES   REMARKS
PHOENIX        PTCLDY    74  66  76 CALM      29.93F
BUCKEYE          N/A     68  68 100 CALM      29.96S
LUKE AFB       NOT AVBL
DEER VALLEY    PTCLDY    71  66  84 W7        29.96R
SCOTTSDALE     PTCLDY    71  66  84 CALM      29.97S
MESA-GATEWAY   CLEAR     72  64  78 S7        29.97F
$$

AZZ027-028-221000-
SOUTHWEST MARICOPA COUNTY AND PINAL COUNTY

CITY           SKY/WX    TMP DP  RH WIND       PRES   REMARKS
CASA GRANDE    CLEAR     70  63  78 CALM      29.97F
$$

AZZ503-504-507>509-221000-
SOUTHEAST ARIZONA

CITY           SKY/WX    TMP DP  RH WIND       PRES   REMARKS
TUCSON         MOCLDY    70  62  76 W5        30.06S
DAVIS-MONTHAN  MOCLDY    69  62  79 W3        30.04F
NOGALES        CLOUDY    65  63  93 SE3       30.10F
SIERRA VISTA   MOCLDY    64  57  77 NW9       30.15S
DOUGLAS        MOCLDY    65  62  90 CALM      30.12F
SAFFORD        MOCLDY    74  56  53 W9        30.02S
$$

AZZ020-021-025-026-031-221000-
SOUTHWEST ARIZONA

CITY           SKY/WX    TMP DP  RH WIND       PRES   REMARKS
YUMA           CLEAR     74  65  73 E5        29.91F
$$

CAZ031-033-041-043-047-048-061-221000-
SOUTHERN CALIFORNIA

CITY           SKY/WX    TMP DP  RH WIND       PRES   REMARKS
DOWNTOWN L.A.  CLEAR     68  60  75 CALM      29.94F
L.A. AIRPORT   PTCLDY    68  61  78 W7        29.95S
SAN DIEGO      MOCLDY    71  64  78 CALM      29.96F
BURBANK        CLEAR     70  59  68 CALM      29.95S
ONTARIO        CLEAR     70  61  73 CALM      29.96S
RIVERSIDE      CLEAR     71  61  70 CALM      29.96S
PALM SPRINGS   CLEAR     78  60  53 CALM      29.91F
EL CENTRO NAS  CLEAR     70  68  93 SE7       29.89S
IMPERIAL       CLEAR     72  66  81 E6        29.89S
BLYTHE         PTCLDY    70  67  90 CALM      29.93S
NEEDLES        CLEAR     78  58  49 CALM      29.94F
$$

NVZ020-UTZ003-221000-
SOUTHERN NEVADA-UTAH

CITY           SKY/WX    TMP DP  RH WIND       PRES   REMARKS
LAS VEGAS      PTCLDY    74  51  44 SW9       29.94F
SALT LAKE CITY MOCLDY    65  52  62 SE9       29.98F
$$

NMZ009-TXZ055-221000-
NEW MEXICO-WEST TEXAS

CITY           SKY/WX    TMP DP  RH WIND       PRES   REMARKS
ALBUQUERQUE    MOCLDY    71  48  43 SW7       30.13S
EL PASO        LGT RAIN  68  65  90 SE7       30.11F
$$


........................KEY........................
SKY/WX - SKY CONDITION/WEATHER
TMP    - TEMPERATURE IN FAHRENHEIT
DP     - DEW POINT IN FAHRENHEIT
RH     - RELATIVE HUMIDITY IN PERCENT
WIND   - DIRECTION AND SPEED IN MILES PER HOUR (MPH)
VRB    - VARIABLE WIND DIRECTION
PRES   - MEAN SEA LEVEL PRESSURE IN INCHES OF MERCURY
         F - FALLING PRESSURE   R - RISING PRESSURE
         S - STEADY PRESSURE
VSB    - VISIBILITY IN MILES
HX     - HEAT INDEX IN FAHRENHEIT
WCI    - WIND CHILL INDEX IN FAHRENHEIT
TC     - TEMPERATURE IN CELSIUS WHICH IS ALSO KNOWN AS
         TEMPERATURE IN CENTIGRADE
AFB    - AIR FORCE BASE
         LUKE AFB IS LUKE AIR FORCE BASE
         DAVIS-MONTHAN IS DAVIS-MONTHAN AIR FORCE BASE
NAS    - NAVAL AIR STATION
         EL CENTRO NAS IS EL CENTRO NAVAL AIR STATION
N/A    - NOT AVAILABLE



USA.gov is the U.S. government's official web portal to all federal, state and local government web resources and services.